Weather Roundup
Issued by NWS

Home | Current Version | Previous Version | Graphics & Text | Print | Product List | Glossary Off
Versions: 1 2 3 4 5 6 7 8 9 10 11 12 13 14 15 16 17 18 19 20 21 22 23 24 25 26 27 28 29 30 31 32 33 34 35 36 37 38 39 40 41 42 43 44 45 46 47 48 49 50

000
NZUS93 KARX 250810
HRRWXR

CURRENT HOURLY OBSERVATIONS ACROSS
MUCH OF THE UPPER MISSISSIPPI VALLEY
NATIONAL WEATHER SERVICE LA CROSSE WI
200 AM CST THU DEC 25 2014


...SOUTHEAST MINNESOTA...


CITY           SKY/WX    TMP DP  RH WIND       PRES   REMARKS
ROCHESTER      CLOUDY    28  26  92 SW15      29.64R WCI  16
ROCHESTER/MAYO CLOUDY    29  28  94 SW8G17    29.65R WCI  21
WINONA         CLOUDY    34  30  86 W5        29.66R WCI  30
AUSTIN         CLOUDY    27  27 100 SW12      29.66R WCI  16
ALBERT LEA     CLOUDY    27  27 100 SW7       29.64R FOG     WCI  19
DODGE CENTER   CLOUDY    28  28 100 SW15      29.63R WCI  17
PRESTON        CLOUDY    28  26  94 W10       29.65R WCI  18
OWATONNA       CLOUDY    28  27  93 SW15G21   29.63R WCI  17
FARIBAULT      CLOUDY    28  27  93 S9G18     29.62S WCI  20
$$

...ELSEWHERE IN MINNESOTA...


CITY           SKY/WX    TMP DP  RH WIND       PRES   REMARKS
MINNEAPOLIS    CLOUDY    30  26  85 SW9       29.61R WCI  22
INTNL FALLS    CLOUDY    30  27  88 SW9       29.43R WCI  22
DULUTH         CLOUDY    32  27  81 SW13      29.48R WCI  22
RED WING       CLOUDY    34  28  80 SW10      29.62R WCI  26
REDWOOD FALLS  MOCLDY    29  26  89 S13       29.57S WCI  19
MANKATO        CLOUDY    28  23  80 SW10      29.61F WCI  19
WORTHINGTON    CLOUDY    27 -20  12 S14       29.57S WCI  15
FAIRMONT       CLOUDY    28  23  80 SW15      29.62R WCI  17
$$

...SOUTHWEST WISCONSIN...


CITY           SKY/WX    TMP DP  RH WIND       PRES   REMARKS
LA CROSSE      CLOUDY    34  28  79 SW9       29.67R WCI  27
PRAIRIE DU CHI CLOUDY    33  28  81 SW6       29.71R WCI  27
BOSCOBEL       CLOUDY    34  28  79 SW7       29.70R WCI  28
LONE ROCK      CLOUDY    38  28  67 W10       29.69R WCI  31
PLATTEVILLE    CLOUDY    32  30  91 SW6       29.72R WCI  26
FORT MC COY    CLOUDY    33  29  85 SW7       29.66R WCI  27
CAMP DOUGLAS   CLOUDY    33  33 100 W10       29.64R WCI  25
VIROQUA        CLOUDY    31  31 100 W17       29.66R WCI  20
WIS DELLS      CLOUDY    33  29  85 W8        29.65R WCI  26
$$

...ELSEWHERE IN WISCONSIN...


CITY           SKY/WX    TMP DP  RH WIND       PRES   REMARKS
MILWAUKEE      MOCLDY    37  29  72 W15G23    29.65R WCI  28
MADISON        CLOUDY    34  27  75 W8        29.67R WCI  27
GREEN BAY      PTCLDY    34  30  85 W12       29.59R WCI  25
EAU CLAIRE     CLOUDY    32  27  81 SW12      29.59S WCI  23
BLACK RVR FLS  CLOUDY    33  28  82 SW6G17    29.64R WCI  28
MEDFORD        CLOUDY    31  27  84 SW6       29.56R WCI  25
WAUSAU         CLEAR     30  27  88 W8        29.56R WCI  22
WIS RAPIDS     CLOUDY    33  27  78 W6        29.62R WCI  28
MARSHFIELD     CLOUDY    33  28  81 SW9       29.59R WCI  25
RICE LAKE      CLOUDY    32  29  87 SW10G16   29.59R WCI  24
$$

...NORTHEAST IOWA...


CITY           SKY/WX    TMP DP  RH WIND       PRES   REMARKS
DECORAH        CLOUDY    30  28  93 VRB7      29.67R WCI  23
MASON CITY     CLOUDY    28  25  88 SW12      29.68R WCI  18
CHARLES CITY   CLOUDY    30  30 100 SW15G22   29.69R WCI  19
OELWEIN        CLOUDY    30  28  93 W15       29.72R WCI  19
$$

...ELSEWHERE IN IOWA...


CITY           SKY/WX    TMP DP  RH WIND       PRES   REMARKS
DES MOINES     CLOUDY    32  27  81 SW13      29.74S WCI  22
IOWA CITY      CLOUDY    32  29  88 SW12      29.79R WCI  23
FORT DODGE     CLOUDY    28  27  93 S14       29.68S WCI  17
$$

...NORTHERN ILLINOIS...


CITY           SKY/WX    TMP DP  RH WIND       PRES   REMARKS
CHICAGO-OHARE  CLOUDY    36  31  82 W13       29.70R WCI  27
CHICAGO-MIDWAY CLOUDY    38  33  82 W12       29.72R WCI  30
MOLINE         CLOUDY    34  28  79 W15G22    29.78R WCI  24
ROCKFORD       CLOUDY    35  28  75 W10       29.74R WCI  27
PEORIA         CLOUDY    37  29  72 W8        29.83R WCI  31
$$

NOTE: "FAIR" INDICATES FEW OR NO CLOUDS BELOW 12,000 FEET WITH NO
SIGNIFICANT WEATHER AND/OR OBSTRUCTIONS TO VISIBILITY. WIND
SPEEDS ARE IN MILES-PER-HOUR.



USA.gov is the U.S. government's official web portal to all federal, state and local government web resources and services.